Wind_Speed
8 10 11 13 15 16 18 19 20 21 20 20 20 20 19 19 19 18 17 16 15 14 14 14 15 16 18 20 22 23 25 27 27 28 29 30 31 31 30 30 30 30 29
7 9 11 13 15 16 17 19 20 21 22 21 21 20 20 20 19 18 17 16 15 14 13 13 13 14 16 18 20 21 23 25 27 27 28 28 30 31 31 32 32 31 31
7 9 11 13 14 16 17 19 20 21 22 22 21 21 21 20 20 19 17 16 15 13 12 11 11 12 13 15 18 20 21 23 25 27 27 28 29 30 32 33 34 33 32
6 8 10 12 14 16 17 19 20 21 22 22 22 22 22 22 21 20 18 16 15 13 11 10 10 10 11 13 15 18 20 22 23 26 26 27 29 30 31 32 33 34 33
5 7 9 11 13 15 17 19 20 21 22 22 23 22 22 22 22 21 19 17 15 13 12 10 10 9 9 10 13 15 17 20 22 24 25 25 28 29 29 31 33 33 33
4 6 9 11 13 15 16 18 20 21 22 23 23 23 23 23 22 21 20 18 16 14 12 10 10 9 8 9 9 11 15 17 20 21 23 24 25 26 28 30 31 32 32
4 6 8 10 12 14 16 17 19 21 22 23 23 23 23 23 23 22 21 19 18 15 13 11 10 8 7 6 7 8 11 14 17 19 20 22 24 24 26 28 30 30 31
4 6 8 10 11 13 15 17 19 20 22 23 24 24 23 23 23 23 21 20 19 17 14 12 11 9 7 6 6 7 9 12 14 16 18 20 22 23 24 25 28 30 30
3 5 7 9 11 13 14 16 18 20 21 22 23 24 24 23 23 22 22 21 20 18 16 13 11 10 8 7 5 5 7 10 12 13 15 18 20 22 23 23 25 28 29
3 5 6 8 10 12 14 16 18 19 21 21 22 23 24 24 24 23 22 21 20 19 18 15 13 11 10 8 6 5 6 8 10 11 13 15 17 19 21 22 23 26 28
3 5 6 8 9 11 13 15 17 19 20 21 22 23 24 24 24 24 23 22 20 19 18 17 15 13 11 9 7 6 5 6 8 10 11 13 15 17 19 21 22 24 25
4 5 6 8 9 11 13 15 16 18 19 20 21 22 23 23 24 24 24 23 21 20 19 18 16 14 12 10 8 6 5 5 5 7 9 11 13 15 18 20 22 23 24
5 6 7 8 9 11 12 14 16 17 18 20 21 21 22 23 23 23 23 22 22 21 20 19 17 15 13 11 9 7 6 5 5 6 7 9 11 13 15 18 21 23 24
6 7 7 8 9 11 12 13 15 16 17 19 20 21 21 22 22 22 22 22 21 21 20 19 17 16 14 12 10 8 6 5 5 5 5 7 8 10 12 15 17 20 22
7 7 8 8 9 11 12 13 14 16 17 18 19 20 21 21 21 21 21 21 21 20 20 19 18 16 15 13 11 10 8 7 7 6 6 5 6 8 10 11 13 16 19
8 8 8 9 9 10 12 13 14 15 16 17 18 19 20 21 21 21 20 20 20 20 19 18 17 16 15 14 12 11 10 9 9 8 7 6 6 6 8 10 12 13 16
9 9 9 9 10 11 12 13 14 15 16 17 18 18 19 20 20 20 20 20 20 20 19 18 17 16 15 14 13 12 11 10 10 9 8 7 6 6 7 8 10 11 13
11 10 10 10 10 11 12 13 14 15 16 17 17 18 19 19 19 19 19 19 19 19 19 18 18 17 15 14 13 12 12 11 10 10 9 8 7 7 7 8 9 10 12
12 12 12 12 12 12 13 13 14 15 16 17 17 18 18 19 19 19 18 18 18 18 18 18 17 16 16 15 14 13 12 11 11 10 10 9 9 8 8 8 9 10 12
14 13 13 13 13 13 13 14 15 16 17 17 18 18 18 19 19 18 18 18 18 18 18 17 17 16 15 15 14 14 14 13 12 11 10 10 10 10 10 10 10 11 11
15 15 15 15 14 14 15 15 16 17 17 18 18 18 19 19 19 19 19 18 19 18 18 18 17 16 16 15 15 14 14 14 13 13 12 12 11 11 11 11 11 12 13
17 16 16 16 16 16 16 16 17 17 18 18 18 19 19 19 19 19 19 19 19 19 18 18 18 17 17 16 16 15 15 15 14 14 13 13 13 12 12 12 12 12 13
18 18 18 18 18 18 18 18 18 18 19 19 19 20 20 20 20 20 20 20 20 19 19 19 18 18 18 18 17 17 16 16 15 15 15 14 14 14 13 13 13 13 14
20 20 20 20 20 20 19 20 20 20 20 20 20 21 21 21 21 21 21 21 21 20 21 21 20 20 20 19 19 19 18 18 17 17 16 16 16 15 15 15 15 16 16
22 22 22 22 22 22 21 21 22 22 22 22 22 22 22 22 22 22 22 22 22 22 22 22 22 22 21 21 21 20 20 20 20 19 19 18 18 18 17 17 18 18 18
24 24 24 24 24 23 23 23 23 23 23 23 23 23 23 23 23 24 24 24 24 24 24 24 24 24 24 23 23 22 22 21 21 21 21 21 21 21 21 21 21 21 21
Wind_Direction
3 5 5 7 6 6 6 6 4 3 1 357 353 349 346 343 338 334 328 322 317 306 291 282 272 263 258 253 248 244 238 235 232 229 228 227 227 226 226 226 226 226 227
7 9 11 11 10 9 9 8 7 6 5 2 359 355 352 349 346 342 337 331 324 314 300 290 279 269 260 253 247 242 236 234 231 229 229 227 226 228 227 226 228 228 227
9 12 13 14 14 14 12 10 9 8 7 5 3 0 358 356 354 351 346 341 335 325 313 299 289 278 266 254 246 241 234 231 230 229 229 229 229 229 228 228 228 229 229
7 13 16 17 17 16 14 12 11 10 8 7 5 3 1 360 358 356 353 349 344 337 327 313 301 292 275 260 250 243 236 231 230 229 229 230 229 230 230 229 228 229 228
11 16 17 17 16 15 14 12 11 10 10 8 6 4 3 2 1 0 358 354 350 344 338 326 314 302 289 273 257 247 238 232 230 230 229 232 231 231 230 230 230 229 228
14 16 14 14 16 15 13 11 11 11 10 9 7 6 6 5 5 4 3 359 355 350 345 337 330 318 303 284 265 247 237 232 233 233 234 234 234 233 231 231 231 230 228
11 12 12 14 15 14 12 12 11 10 10 9 10 9 8 7 8 8 7 6 3 359 354 349 343 335 318 296 274 252 239 235 234 235 236 235 235 235 234 235 235 234 232
2 9 12 13 13 12 11 11 10 9 9 10 10 10 9 9 10 10 10 11 10 7 1 356 351 344 335 315 285 264 248 240 237 236 236 235 236 236 237 236 234 234 235
350 4 10 10 10 10 10 9 8 8 9 9 9 10 10 10 10 10 11 11 11 10 7 2 356 352 344 334 305 276 259 246 240 238 238 236 237 238 238 237 234 232 232
335 352 358 2 4 5 6 6 6 7 8 8 8 9 10 11 11 11 11 11 11 11 10 7 3 358 353 351 335 305 276 254 243 240 240 236 235 237 237 236 234 233 233
315 335 345 352 357 360 1 2 3 5 6 7 7 8 9 11 12 12 12 11 11 11 11 10 8 6 2 357 351 340 314 278 256 248 243 238 236 236 236 235 234 234 234
299 322 334 343 348 352 356 358 0 2 4 5 6 7 8 9 11 12 13 14 14 13 12 10 9 8 6 4 358 350 336 318 285 259 249 242 239 239 237 236 235 235 234
288 309 324 334 341 346 350 354 357 360 2 3 5 6 6 8 10 12 13 14 14 14 14 13 12 12 10 8 7 2 350 333 317 296 272 257 251 246 243 240 238 237 235
283 301 316 327 334 340 344 348 352 356 359 1 2 4 4 6 8 9 11 12 13 14 15 14 15 14 14 13 10 6 360 345 329 319 296 272 258 252 249 245 242 241 238
280 295 309 320 328 333 338 343 347 351 354 356 358 0 2 3 5 6 8 10 12 13 13 13 14 15 15 14 13 10 4 354 345 334 320 296 276 260 253 250 245 242 241
275 289 301 311 320 327 333 338 342 346 349 351 354 356 358 359 1 2 5 7 9 11 10 10 11 12 12 12 12 10 6 1 354 346 334 317 299 282 266 258 252 248 246
272 284 294 303 312 320 326 332 337 340 343 346 349 351 353 355 357 359 1 3 5 7 9 10 10 9 9 9 8 6 3 359 355 350 342 331 314 297 282 271 263 256 254
271 281 288 296 305 312 319 325 330 334 338 341 344 346 348 351 353 355 357 359 1 3 4 5 6 7 6 5 3 2 358 355 352 348 343 336 325 312 297 283 274 266 262
270 278 285 292 299 306 312 318 324 328 332 336 339 341 343 346 349 350 352 354 355 357 358 358 360 1 2 1 359 357 354 351 347 344 339 333 326 317 309 297 283 274 270
268 275 281 287 293 300 306 312 317 322 326 330 333 337 338 340 342 344 345 347 348 350 352 351 352 353 353 353 351 349 347 344 341 338 334 330 324 315 308 300 292 285 280
267 273 278 283 288 294 300 306 312 316 321 324 327 331 333 334 335 337 338 339 341 343 345 346 345 344 344 344 342 341 340 338 336 333 330 326 321 316 311 305 299 292 287
267 272 276 280 285 290 295 301 307 311 315 319 321 324 326 329 330 330 332 333 335 336 338 339 339 338 336 334 333 332 331 330 328 326 324 324 319 313 310 307 303 299 294
267 271 274 278 282 287 291 297 302 307 310 313 316 318 320 323 324 325 326 327 329 331 332 332 331 330 329 328 326 324 322 321 320 319 318 317 318 315 307 302 301 298 295
267 270 273 277 280 284 288 292 297 301 305 308 310 313 315 317 319 320 322 323 324 325 326 326 325 323 322 321 321 319 317 315 313 311 309 308 308 307 305 301 298 295 294
267 269 272 275 278 281 285 289 293 297 301 303 306 308 310 313 314 315 317 319 320 320 321 321 320 319 317 317 315 314 313 312 309 306 303 301 298 298 297 296 294 292 292
266 268 271 273 276 279 282 286 290 294 297 299 300 302 305 307 309 310 311 313 314 315 315 315 315 315 314 312 311 310 310 308 306 304 301 298 295 293 292 291 291 290 289
Height
5846 5844 5841 5839 5836 5832 5829 5825 5821 5817 5812 5808 5804 5800 5796 5792 5788 5785 5781 5778 5775 5773 5772 5771 5770 5771 5772 5773 5775 5777 5780 5784 5788 5792 5796 5800 5805 5809 5813 5818 5822 5826 5830
5845 5843 5841 5838 5835 5832 5828 5824 5820 5816 5812 5807 5803 5799 5795 5791 5786 5782 5779 5775 5772 5770 5768 5767 5766 5766 5767 5768 5770 5772 5775 5778 5782 5786 5790 5794 5799 5803 5807 5811 5816 5820 5824
5844 5842 5840 5837 5834 5831 5828 5824 5820 5816 5811 5807 5802 5798 5794 5789 5785 5781 5777 5773 5770 5767 5765 5763 5763 5762 5762 5763 5765 5766 5769 5772 5776 5780 5784 5788 5792 5796 5801 5805 5809 5813 5817
5843 5841 5839 5837 5834 5831 5827 5824 5820 5816 5811 5807 5802 5798 5793 5789 5784 5779 5775 5772 5768 5765 5763 5761 5760 5759 5759 5759 5760 5762 5764 5767 5771 5775 5779 5782 5786 5790 5794 5798 5802 5807 5811
5843 5841 5839 5836 5834 5831 5827 5824 5820 5816 5812 5807 5802 5798 5793 5788 5784 5779 5774 5770 5767 5764 5761 5759 5757 5756 5756 5756 5756 5758 5760 5763 5766 5769 5773 5776 5780 5783 5787 5792 5796 5800 5804
5842 5840 5838 5836 5834 5831 5828 5824 5820 5816 5812 5808 5803 5798 5793 5788 5784 5779 5774 5770 5766 5763 5760 5758 5756 5755 5754 5753 5753 5754 5756 5759 5762 5765 5768 5771 5774 5777 5781 5785 5789 5793 5798
5841 5840 5838 5836 5833 5831 5828 5824 5821 5817 5813 5808 5803 5799 5794 5789 5784 5779 5774 5770 5766 5762 5760 5757 5755 5753 5752 5751 5751 5752 5753 5755 5758 5760 5763 5766 5769 5772 5775 5779 5783 5787 5791
5841 5839 5838 5836 5833 5831 5828 5824 5821 5817 5813 5809 5804 5799 5795 5790 5785 5780 5775 5771 5767 5763 5760 5757 5755 5752 5751 5750 5750 5750 5751 5752 5754 5756 5759 5761 5764 5767 5770 5773 5777 5781 5785
5840 5839 5837 5835 5833 5830 5828 5825 5821 5818 5814 5809 5805 5800 5796 5791 5786 5781 5776 5772 5768 5764 5760 5757 5754 5752 5750 5749 5748 5748 5749 5750 5752 5753 5755 5757 5760 5762 5765 5768 5771 5775 5779
5839 5838 5836 5835 5832 5830 5828 5825 5821 5818 5814 5810 5806 5801 5796 5792 5787 5782 5777 5773 5769 5765 5761 5757 5755 5752 5750 5749 5748 5748 5748 5748 5749 5751 5752 5754 5756 5758 5760 5763 5766 5769 5773
5838 5837 5835 5834 5832 5830 5827 5824 5821 5818 5814 5810 5806 5802 5797 5793 5788 5783 5778 5774 5769 5765 5762 5758 5755 5753 5751 5749 5748 5747 5747 5747 5747 5748 5749 5751 5752 5754 5756 5759 5761 5764 5767
5837 5836 5834 5833 5831 5829 5827 5824 5821 5818 5815 5811 5807 5802 5798 5794 5789 5784 5780 5775 5771 5767 5763 5759 5756 5753 5751 5749 5748 5747 5746 5746 5746 5746 5747 5748 5749 5750 5752 5754 5756 5759 5762
5835 5834 5833 5832 5830 5828 5826 5823 5821 5818 5814 5811 5807 5803 5799 5794 5790 5785 5781 5777 5772 5768 5764 5761 5757 5754 5752 5750 5748 5747 5746 5745 5745 5744 5744 5745 5746 5747 5748 5750 5752 5754 5756
5833 5833 5832 5830 5829 5827 5825 5823 5820 5817 5814 5811 5807 5803 5799 5795 5791 5786 5782 5778 5774 5770 5766 5762 5759 5756 5753 5751 5749 5747 5746 5745 5744 5744 5743 5743 5744 5744 5745 5746 5747 5749 5752
5831 5831 5830 5828 5827 5825 5824 5821 5819 5816 5813 5810 5807 5803 5799 5795 5791 5787 5783 5779 5775 5771 5767 5764 5760 5757 5754 5752 5750 5748 5746 5745 5744 5743 5742 5742 5742 5742 5742 5743 5744 5746 5748
5829 5828 5827 5826 5825 5824 5822 5820 5818 5815 5812 5809 5806 5803 5799 5795 5791 5787 5784 5780 5776 5772 5768 5765 5761 5758 5756 5753 5751 5749 5747 5745 5744 5743 5741 5741 5740 5740 5740 5741 5742 5743 5744
5826 5826 5825 5824 5823 5822 5820 5818 5816 5813 5811 5808 5805 5802 5798 5795 5791 5787 5784 5780 5776 5773 5769 5766 5762 5759 5756 5754 5751 5749 5747 5746 5744 5742 5741 5740 5739 5738 5738 5739 5739 5740 5740
5823 5823 5822 5821 5820 5819 5818 5816 5814 5812 5809 5806 5803 5800 5797 5794 5790 5787 5783 5780 5776 5773 5769 5766 5763 5760 5757 5754 5752 5750 5748 5746 5744 5742 5741 5739 5738 5737 5737 5737 5737 5737 5737
5820 5819 5819 5818 5817 5816 5815 5813 5811 5809 5807 5804 5801 5798 5795 5792 5789 5786 5782 5779 5776 5772 5769 5766 5763 5760 5757 5754 5752 5750 5747 5745 5744 5742 5740 5739 5737 5736 5735 5735 5734 5734 5734
5816 5816 5815 5815 5814 5813 5811 5810 5808 5806 5804 5801 5799 5796 5793 5790 5787 5784 5781 5778 5775 5772 5768 5765 5762 5759 5757 5754 5751 5749 5747 5744 5743 5741 5739 5737 5736 5735 5734 5733 5732 5732 5731
5812 5812 5811 5811 5810 5809 5808 5806 5805 5803 5801 5798 5796 5793 5790 5787 5784 5781 5779 5776 5773 5770 5767 5764 5761 5758 5755 5753 5750 5748 5745 5743 5741 5739 5737 5736 5734 5733 5732 5730 5730 5729 5728
5807 5807 5807 5806 5805 5804 5803 5802 5801 5799 5797 5794 5792 5790 5787 5784 5781 5779 5776 5773 5770 5767 5764 5762 5759 5756 5753 5751 5748 5746 5744 5741 5739 5737 5735 5734 5732 5730 5729 5728 5727 5726 5725
5802 5802 5802 5801 5800 5800 5799 5797 5796 5794 5792 5790 5788 5786 5783 5780 5778 5775 5772 5770 5767 5764 5761 5759 5756 5753 5750 5748 5745 5743 5741 5739 5737 5735 5733 5731 5729 5727 5726 5725 5724 5723 5721
5796 5796 5796 5795 5795 5794 5793 5792 5791 5789 5787 5785 5783 5781 5778 5776 5773 5771 5768 5766 5763 5760 5758 5755 5752 5749 5747 5744 5742 5739 5737 5735 5733 5731 5729 5727 5726 5724 5722 5721 5720 5719 5717
5790 5790 5790 5789 5789 5788 5787 5786 5785 5783 5782 5780 5778 5776 5773 5771 5769 5766 5764 5761 5759 5756 5754 5751 5748 5745 5742 5740 5737 5735 5733 5730 5728 5726 5724 5723 5721 5719 5718 5716 5715 5714 5712
5783 5783 5782 5782 5782 5781 5781 5780 5778 5777 5776 5774 5772 5770 5768 5766 5763 5761 5758 5756 5753 5751 5748 5746 5743 5740 5737 5734 5732 5729 5727 5725 5723 5721 5719 5717 5715 5714 5712 5711 5709 5708 5706